Location: Pf�ffikon
(47.2015°N, 8.7809°E)
Time: 07:49:01
(UTC+00:00)

Cosmos 2058 - Pass Details

Date: 07 June 2020
Orbit: 561 x 584 km, 82.5° (Epoch: 05 July)

Event Time Altitude Azimuth Distance (km) Brightness Sun altitude
Exits shadow 02:26:59 12° 225° (SW) 1,803 4.8 -8.8°
Maximum altitude 02:30:28 32° 287° (WNW) 1,023 4.0 -8.4°
Drops below altitude 10° 02:34:17 10° 351° (N) 1,917 6.1 -7.9°
Sets 02:36:41 0° 1° (N) 2,821 7.3 -7.7°
